{"data":{"norad_id":68148,"intl_designator":"2026-049G","name":"STARLINK-36981","alt_names":[],"object_type":"PAYLOAD","status":"ACTIVE","operator":null,"country":"US","launch_date":"2026-03-13","launch_site_code":"AFWTR","launch_vehicle":null,"mission":null,"orbit_class":"UNKNOWN","rcs_meters":null,"size_class":null,"mass_kg":null,"dimensions":null,"purposes":["comms"],"wikipedia_slug":null,"has_3d_model":false,"image_url":null,"decayed_at":null,"tle_current":{"epoch":"2026-09-20T01:15:10.281312Z","epoch_age_seconds":94270,"freshness":"FRESH","line1":"1 68148U 26049G   26263.05220233  .00016394  00000+0  50894-3 0  9995","line2":"2 68148  97.2850 283.0329 0000268 140.6296 219.4967 15.33451836 29436","mean_motion":15.33451836,"eccentricity":2.68e-5,"inclination_deg":97.285,"raan_deg":283.0329,"arg_perigee_deg":140.6296,"mean_anomaly_deg":219.4967,"bstar":0.00050894,"rev_number":2943,"period_min":93.90578603083,"perigee_km":465.33942534364,"apogee_km":465.70624551082,"semimajor_km":6843.6598354272,"source":"CELESTRAK","updated_at":"2026-09-20T09:00:43.792466Z"}}}